Location: General Nathan Twining Observatory
(34.5931°N, 106.8201°W)
Time: 07:06:00
(UTC-07:00)

Daily predictions for brighter satellites

Satellite Brightness Start Highest point End
(mag) Time Altitude Azimuth Time Altitude Azimuth Time Altitude Azimuth
Cosmos 1461 3.7 17:21:43 10° NW 17:26:24 67° WSW 17:31:05 10° SSE
CZ-4C R/B 4.5 17:29:19 10° NNE 17:32:00 12° NE 17:34:47 10° ENE
CSL-04 Debris 4.1 17:26:59 10° SSE 17:32:23 74° ENE 17:37:47 10° N
Ariane Rocket 3.0 17:27:52 10° SSE 17:32:56 74° ENE 17:38:00 10° N
Okean 1-7 4.1 17:33:27 10° SE 17:37:00 25° E 17:40:34 10° NE
COSMOS 2455 3.6 17:34:11 10° SW 17:40:00 53° WNW 17:45:54 10° NNE
Cosmos 1633 3.9 17:37:37 10° NNE 17:40:23 20° ENE 17:43:09 10° SE
MTI 4.3 17:37:53 10° NNE 17:40:56 38° E 17:43:57 10° S
CZ-4 R/B 1.3 17:38:13 10° SSE 17:42:02 58° ENE 17:45:49 10° N
Cosmos 2297 4.3 17:37:22 10° SSE 17:42:29 35° ESE 17:47:39 10° NE
Cosmos 1816 Rocket 4.5 17:37:13 10° N 17:43:22 89° E 17:49:32 10° S
Meteor 1-26 Rocket 4.3 17:37:57 10° S 17:43:34 82° W 17:49:07 10° N
Cosmos 841 Rocket 3.9 17:40:00 10° N 17:45:00 42° ENE 17:49:57 10° SE
Cosmos 1833 Rocket 3.8 17:41:05 10° N 17:45:22 22° ENE 17:49:36 10° ESE
USA 234 3.3 17:40:34 10° NE 17:47:05 68° SE 17:53:33 10° SSW
GPS 2-05 Rocket1 4.2 17:44:48 10° SSW 17:47:27 24° SSE 17:49:39 13° ESE
Cosmos 1486 Rocket 4.0 17:42:50 10° SSW 17:48:02 85° ESE 17:53:17 10° NNE
Cosmos 2278 Rocket 2.4 17:42:28 10° SSW 17:48:08 77° WNW 17:53:49 10° NNE
Cosmos 1782 Rocket 4.3 17:49:19 10° NNE 17:53:10 30° ENE 17:57:00 10° SE
YAOGAN 1 2.6 17:51:25 10° SSE 17:55:40 59° ENE 17:59:56 10° N
CORIOLIS 4.2 17:51:36 10° SSE 17:57:02 86° WSW 18:02:31 10° NNW
COSMO-SKYMED 1 2.6 17:54:04 10° NNE 17:58:21 57° E 18:02:36 10° S
Cosmos 1484 Rocket 3.7 17:55:31 10° S 17:59:14 52° W 18:03:03 10° NNW
Meteor 1-28 Rocket 4.0 17:56:50 10° N 18:00:27 52° WNW 18:04:03 10° SSW
OAO 3 Copernicus 4.3 17:55:21 10° W 18:00:27 86° N 18:04:13 18° E
Cosmos 1606 2.6 17:58:03 10° S 18:01:48 63° E 18:05:32 10° NNE
OAO 3 Rocket 4.4 17:57:30 10° SW 18:01:50 31° SSE 18:04:51 17° E
USA 116 4.3 17:57:59 10° N 18:02:21 63° WNW 18:06:10 10° SSW
Cosmos 304 Rocket 3.7 17:58:08 10° NNW 18:02:57 85° ENE 18:07:44 10° SSE
SPOT 3 Rocket 3.9 17:58:51 10° SE 18:03:43 41° ENE 18:08:35 10° N
Cosmos 1354 Rocket 4.1 17:59:21 10° S 18:04:31 59° ESE 18:09:41 10° NNE
CZ-2C R/B 4.3 18:00:54 10° N 18:05:19 59° WNW 18:09:47 10° SSW
Cosmos 2221 Rocket 3.6 18:03:58 10° S 18:08:15 53° E 18:12:32 10° NNE
EO 1 Del DPAF 3.1 18:07:14 10° NNE 18:11:03 82° ESE 18:14:52 10° S
Landsat 4 4.5 18:07:40 10° N 18:11:22 53° WNW 18:15:04 10° SSW
Cosmos 2034 Rocket 4.3 18:05:53 10° SSE 18:11:50 43° E 18:17:46 10° NNE
Chunghua 1 4.5 18:11:11 10° W 18:14:53 81° S 18:16:35 30° ESE
ERBS 2.5 18:13:55 10° NW 18:17:18 71° SW 18:20:42 10° SSE
Cosmos 1703 Rocket 3.9 18:13:03 10° SSW 18:17:30 69° W 18:21:57 10° N
Cosmos 1782 2.9 18:14:48 10° S 18:18:49 77° W 18:22:51 10° N
NOAA 12 4.2 18:14:00 10° SSE 18:19:08 51° ENE 18:24:16 10° N
Meteor 2-6 Rocket 4.0 18:15:37 10° S 18:20:59 71° E 18:26:29 10° NNE
Tiangong 1 3.2 18:25:49 10° S 18:26:25 13° S 18:26:25 13° S
OPS 6431 4.4 18:25:50 10° NNW 18:29:03 73° ENE 18:29:11 71° E
USA 229 DEB 4.5 18:23:48 10° SSE 18:29:18 27° ESE 18:30:04 27° E
USA 229 4.5 18:23:56 10° SSE 18:29:24 27° ESE 18:30:06 27° E
ALOS 2.1 18:26:56 10° SSE 18:31:33 68° ENE 18:36:13 10° N
Cosmos 2082 Rocket 2.3 18:26:10 10° N 18:31:43 52° ENE 18:37:12 10° SE
Okean 2 Rocket 3.1 18:28:03 10° N 18:32:31 55° E 18:36:56 10° SSE
Cosmos 405 Rocket 2.5 18:29:11 10° S 18:33:00 72° E 18:34:12 41° NNE
ERS-2 3.3 18:34:16 10° S 18:37:48 45° W 18:41:20 10° NNW
Meteor 2-20 4.5 18:32:04 10° N 18:38:00 52° E 18:43:52 10° SSE
Cosmos 1464 Rocket 4.1 18:34:30 10° S 18:40:36 77° W 18:46:46 10° N
Thor Agena Rocket 3.6 18:39:43 41° ENE 18:40:54 49° E 18:45:51 10° S
Meteor 1-27 Rocket 3.7 18:42:05 10° S 18:47:56 78° E 18:53:42 11° NNE
SL-27 R/B 4.3 18:54:56 10° NW 18:57:54 29° WSW 19:00:52 10° SSW
Cosmos 968 Rocket 3.6 19:11:56 10° SSW 19:17:03 71° WNW 19:17:16 70° NW
Meteor 2-20 Rocket 4.3 19:15:05 10° N 19:21:12 87° W 19:27:16 10° S
CZ-4C R/B 3.3 19:15:03 10° NNW 19:20:54 47° NNE 19:20:54 47° NNE
Cosmos 2369 Rocket 4.2 19:19:57 10° S 19:21:00 15° S 19:21:00 15° S
Cosmos 1833 Rocket 3.6 19:24:08 10° NW 19:29:28 46° WSW 19:34:47 10° S
USA 234 4.5 19:27:13 26° N 19:29:44 34° NW 19:35:27 10° W
Meteor 1-11 Rocket 4.2 19:24:27 10° NNW 19:30:11 59° W 19:35:46 10° S
